Home   Weather   Anchorage   Past weeks

Flag for USA Past Weather in Anchorage, Alaska, USA — Yesterday and Last 2 Weeks

Now
17 °F

Mostly cloudy.


Feels Like: 4 °F
Forecast: 11 / 15 °F
Wind: 12 mph from North

Location: Lake Hood Seaplane

Current Time: Dec 7, 2016 at 1:36:39 am

Latest Report: Dec 7, 2016 at 12:53 am


Visibility: 10 mi

Pressure: 30.15 "Hg

Humidity: 62%

Dew Point: 6 °F

Location of AnchorageLocation

Past Weather in Anchorage — Graph

°F

Anchorage Temperature Yesterday

Maximum temperature yesterday: 17 °F (at 11:53 pm)
Minimum temperature yesterday: 12 °F (at 6:53 am)
Average temperature yesterday: 14 °F

High & Low Weather Summary for the Past Weeks

 TemperatureHumidityPressure
High27 °F (Nov 27, 11:53 am)92% (Dec 1, 10:53 pm)30.41 "Hg (Dec 1, 10:53 pm)
Low-5 °F (Dec 5, 6:53 am)39% (Dec 2, 8:53 pm)28.97 "Hg (Nov 26, 9:53 pm)
Average15 °F68%29.62 "Hg
* Reported Nov 21 11:53 pm — Dec 6 11:53 pm, Anchorage, Weather by CustomWeather, © 2016

Note: Actual official high and low records may vary slightly from our data, if they occured in-between our weather recording intervals... More about our weather records

Advertising

Anchorage Weather History for the Previous 24 Hours

Scroll right to see more
 ConditionsComfort  
Time TempWeatherWind HumidityBarometerVisibility
11:53 pm
Tue, Dec 6
17 °FOvercast.10 mph56%30.15 "Hg10 mi
10:53 pm16 °FOvercast.10 mph59%30.15 "Hg10 mi
9:53 pm15 °FOvercast.13 mph58%30.15 "Hg10 mi
8:53 pm14 °FOvercast.10 mph58%30.15 "Hg10 mi
7:53 pm14 °FOvercast.10 mph58%30.15 "Hg10 mi
6:53 pm15 °FOvercast.13 mph56%30.16 "Hg10 mi
5:53 pm14 °FPassing clouds.10 mph58%30.16 "Hg10 mi
4:53 pm14 °FPassing clouds.10 mph56%30.15 "Hg10 mi
3:53 pm14 °FClear.10 mph56%30.16 "Hg10 mi
2:53 pm14 °FSunny.12 mph56%30.16 "Hg10 mi
1:53 pm14 °FSunny.8 mph56%30.18 "Hg10 mi
12:53 pm14 °FSunny.14 mph53%30.19 "Hg10 mi
11:53 am13 °FSunny.7 mph56%30.19 "Hg10 mi
10:53 am12 °FSunny.10 mph58%30.21 "Hg10 mi
9:53 am13 °FClear.10 mph56%30.21 "Hg10 mi
8:53 am12 °FPassing clouds.12 mph58%30.21 "Hg10 mi
7:53 am13 °FClear.12 mph56%30.21 "Hg10 mi
6:53 am12 °FClear.10 mph58%30.21 "Hg10 mi
5:53 am13 °FPassing clouds.7 mph56%30.22 "Hg10 mi
4:53 am14 °FOvercast.12 mph51%30.23 "Hg10 mi
3:53 am13 °FOvercast.9 mph56%30.24 "Hg10 mi
2:53 am13 °FOvercast.12 mph56%30.24 "Hg10 mi
1:53 am13 °FOvercast.14 mph54%30.25 "Hg10 mi
Weather by CustomWeather, © 2016

See weather overviewHow to use our weather pages